• In Uzbekistan
  • List of Countries
  • For 7 days
  • Water Temperature
  • Satellite Maps
  • Weather Map
  • Weather Widgets
  • user-avatar
    Login

    Hourly Weather Kutaisi

    Today, 25 September, Monday

    Time Temperature Precipitation Wind Pressure Humidity
    00:00 +20°C° 0.1 mm 0 mps 752 mmHg 96%
    01:00 +22°C° 0 mm 1 mps 752 mmHg 95%
    02:00 +21°C° 0 mm 1 mps 752 mmHg 94%
    03:00 +21°C° 0 mm 1 mps 751 mmHg 95%
    04:00 +21°C° 0.1 mm 1 mps 751 mmHg 94%
    05:00 +21°C° 0.1 mm 1 mps 751 mmHg 93%
    06:00 +21°C° 0.1 mm 1 mps 751 mmHg 92%
    07:00 +22°C° 0.1 mm 1 mps 751 mmHg 87%
    08:00 +24°C° 0.1 mm 1 mps 751 mmHg 82%
    09:00 +25°C° 0.1 mm 1 mps 751 mmHg 77%
    10:00 +27°C° 0 mm 1 mps 751 mmHg 70%
    11:00 +28°C° 0 mm 1 mps 750 mmHg 63%
    12:00 +30°C° 0 mm 1 mps 750 mmHg 56%
    13:00 +30°C° 0 mm 1 mps 750 mmHg 56%
    14:00 +30°C° 0 mm 2 mps 750 mmHg 56%
    15:00 +29°C° 0 mm 2 mps 750 mmHg 57%
    16:00 +27°C° 0.2 mm 1 mps 750 mmHg 67%
    17:00 +25°C° 0.2 mm 1 mps 750 mmHg 78%
    18:00 +21°C° 0.2 mm 0 mps 750 mmHg 88%
    19:00 +23°C° 0.2 mm 1 mps 750 mmHg 88%
    20:00 +22°C° 0.2 mm 1 mps 750 mmHg 88%
    21:00 +22°C° 0.2 mm 1 mps 751 mmHg 88%
    22:00 +20°C° 0 mm 2 mps 750 mmHg 86%
    23:00 +20°C° 0 mm 2 mps 750 mmHg 84%

    Tomorrow, 26 September, Tuesday

    Time Temperature Precipitation Wind Pressure Humidity
    00:00 +20°C° 0 mm 2 mps 750 mmHg 83%
    01:00 +20°C° 0 mm 2 mps 750 mmHg 81%
    02:00 +19°C° 0 mm 2 mps 750 mmHg 79%
    03:00 +19°C° 0 mm 2 mps 750 mmHg 77%
    04:00 +19°C° 0 mm 2 mps 750 mmHg 76%
    05:00 +19°C° 0 mm 2 mps 749 mmHg 75%
    06:00 +19°C° 0 mm 2 mps 749 mmHg 73%
    07:00 +21°C° 0 mm 2 mps 749 mmHg 66%
    08:00 +24°C° 0 mm 2 mps 749 mmHg 60%
    09:00 +26°C° 0 mm 2 mps 748 mmHg 53%
    10:00 +28°C° 0 mm 2 mps 748 mmHg 49%
    11:00 +29°C° 0 mm 2 mps 748 mmHg 45%
    12:00 +31°C° 0 mm 2 mps 748 mmHg 41%
    13:00 +31°C° 0 mm 2 mps 747 mmHg 41%
    14:00 +31°C° 0 mm 2 mps 747 mmHg 41%
    15:00 +31°C° 0 mm 2 mps 747 mmHg 41%
    16:00 +28°C° 0 mm 1 mps 747 mmHg 49%
    17:00 +26°C° 0 mm 1 mps 747 mmHg 58%
    18:00 +24°C° 0 mm 1 mps 747 mmHg 66%
    19:00 +23°C° 0 mm 1 mps 747 mmHg 67%
    20:00 +23°C° 0 mm 1 mps 748 mmHg 68%
    21:00 +23°C° 0 mm 2 mps 748 mmHg 68%
    22:00 +21°C° 0 mm 2 mps 748 mmHg 69%
    23:00 +21°C° 0 mm 2 mps 748 mmHg 69%

    Day after tomorrow, 27 September, Wednesday

    Time Temperature Precipitation Wind Pressure Humidity
    00:00 +21°C° 0 mm 2 mps 748 mmHg 70%
    01:00 +20°C° 0 mm 2 mps 748 mmHg 70%
    02:00 +20°C° 0 mm 2 mps 748 mmHg 71%
    03:00 +19°C° 0 mm 2 mps 747 mmHg 71%
    04:00 +19°C° 0 mm 2 mps 747 mmHg 70%
    05:00 +19°C° 0 mm 2 mps 747 mmHg 69%
    06:00 +19°C° 0 mm 2 mps 747 mmHg 68%
    07:00 +20°C° 0 mm 2 mps 747 mmHg 63%
    08:00 +23°C° 0 mm 1 mps 748 mmHg 59%
    09:00 +24°C° 0 mm 1 mps 748 mmHg 54%
    10:00 +26°C° 0 mm 1 mps 748 mmHg 51%
    11:00 +27°C° 0 mm 1 mps 747 mmHg 48%
    12:00 +28°C° 0 mm 1 mps 747 mmHg 45%
    13:00 +27°C° 0 mm 2 mps 747 mmHg 48%
    14:00 +27°C° 0 mm 2 mps 748 mmHg 52%
    15:00 +26°C° 0 mm 2 mps 748 mmHg 55%
    16:00 +24°C° 0.2 mm 2 mps 748 mmHg 65%
    17:00 +23°C° 0.2 mm 1 mps 748 mmHg 76%
    18:00 +21°C° 0.2 mm 1 mps 748 mmHg 86%
    19:00 +20°C° 0.5 mm 1 mps 749 mmHg 88%
    20:00 +20°C° 0.5 mm 1 mps 749 mmHg 90%
    21:00 +20°C° 0.5 mm 1 mps 749 mmHg 92%
    22:00 +19°C° 2.2 mm 1 mps 749 mmHg 92%
    23:00 +19°C° 2.2 mm 1 mps 749 mmHg 93%

    28 September, Thursday

    Time Temperature Precipitation Wind Pressure Humidity
    00:00 +19°C° 2.2 mm 1 mps 749 mmHg 94%
    01:00 +19°C° 6.1 mm 1 mps 749 mmHg 94%
    02:00 +19°C° 6.1 mm 1 mps 749 mmHg 95%
    03:00 +19°C° 6.1 mm 1 mps 749 mmHg 96%
    04:00 +18°C° 5.2 mm 1 mps 749 mmHg 96%
    05:00 +18°C° 5.2 mm 1 mps 749 mmHg 96%
    06:00 +16°C° 5.2 mm 2 mps 749 mmHg 97%
    07:00 +16°C° 3.9 mm 2 mps 749 mmHg 96%
    08:00 +16°C° 3.9 mm 2 mps 749 mmHg 95%
    09:00 +17°C° 3.9 mm 2 mps 749 mmHg 93%
    10:00 +17°C° 3.9 mm 2 mps 749 mmHg 94%
    11:00 +17°C° 3.9 mm 2 mps 750 mmHg 94%
    12:00 +16°C° 3.9 mm 2 mps 750 mmHg 94%
    13:00 +16°C° 3.4 mm 2 mps 750 mmHg 94%
    14:00 +16°C° 3.4 mm 1 mps 750 mmHg 94%
    15:00 +16°C° 3.4 mm 1 mps 750 mmHg 95%
    16:00 +16°C° 1.1 mm 1 mps 750 mmHg 95%
    17:00 +16°C° 1.1 mm 1 mps 751 mmHg 94%
    18:00 +16°C° 1.1 mm 1 mps 751 mmHg 94%
    19:00 +16°C° 0.1 mm 1 mps 751 mmHg 94%
    20:00 +16°C° 0.1 mm 1 mps 752 mmHg 93%
    21:00 +16°C° 0.1 mm 2 mps 752 mmHg 93%
    22:00 +15°C° 0 mm 2 mps 752 mmHg 92%
    23:00 +15°C° 0 mm 2 mps 752 mmHg 92%

    29 September, Friday

    Time Temperature Precipitation Wind Pressure Humidity
    00:00 +15°C° 0 mm 2 mps 751 mmHg 92%
    01:00 +15°C° 0 mm 2 mps 751 mmHg 91%
    02:00 +15°C° 0 mm 2 mps 751 mmHg 90%
    03:00 +14°C° 0 mm 2 mps 751 mmHg 89%
    04:00 +14°C° 0 mm 2 mps 751 mmHg 87%
    05:00 +14°C° 0 mm 2 mps 751 mmHg 86%
    06:00 +14°C° 0 mm 2 mps 751 mmHg 84%
    07:00 +16°C° 0 mm 2 mps 750 mmHg 77%
    08:00 +18°C° 0 mm 2 mps 750 mmHg 70%
    09:00 +20°C° 0 mm 2 mps 750 mmHg 62%
    10:00 +22°C° 0 mm 3 mps 749 mmHg 58%
    11:00 +24°C° 0 mm 3 mps 749 mmHg 54%
    12:00 +25°C° 0 mm 3 mps 749 mmHg 50%
    13:00 +25°C° 0 mm 3 mps 748 mmHg 51%
    14:00 +25°C° 0 mm 3 mps 748 mmHg 51%
    15:00 +25°C° 0 mm 3 mps 747 mmHg 52%
    16:00 +22°C° 0 mm 3 mps 747 mmHg 58%
    17:00 +20°C° 0 mm 2 mps 747 mmHg 64%
    18:00 +19°C° 0 mm 2 mps 748 mmHg 71%
    19:00 +18°C° 0.1 mm 2 mps 748 mmHg 71%
    20:00 +18°C° 0.1 mm 2 mps 748 mmHg 72%
    21:00 +17°C° 0.1 mm 2 mps 748 mmHg 73%
    22:00 +17°C° 0.2 mm 2 mps 747 mmHg 73%
    23:00 +17°C° 0.2 mm 3 mps 747 mmHg 73%

    30 September, Saturday

    Time Temperature Precipitation Wind Pressure Humidity
    00:00 +17°C° 0.2 mm 3 mps 747 mmHg 73%
    01:00 +17°C° 0.2 mm 2 mps 747 mmHg 74%
    02:00 +16°C° 0.2 mm 2 mps 746 mmHg 75%
    03:00 +16°C° 0.2 mm 2 mps 746 mmHg 76%
    04:00 +16°C° 0.2 mm 2 mps 746 mmHg 77%
    05:00 +16°C° 0.2 mm 2 mps 746 mmHg 78%
    06:00 +16°C° 0.2 mm 2 mps 746 mmHg 79%
    07:00 +17°C° 0.1 mm 2 mps 745 mmHg 76%
    08:00 +19°C° 0.1 mm 2 mps 745 mmHg 73%
    09:00 +20°C° 0.1 mm 2 mps 745 mmHg 69%
    10:00 +21°C° 0.1 mm 2 mps 745 mmHg 67%
    11:00 +23°C° 0.1 mm 2 mps 745 mmHg 64%
    12:00 +23°C° 0.1 mm 2 mps 745 mmHg 62%
    13:00 +23°C° 0.1 mm 2 mps 745 mmHg 63%
    14:00 +23°C° 0.1 mm 2 mps 745 mmHg 65%
    15:00 +23°C° 0.1 mm 1 mps 745 mmHg 67%
    16:00 +22°C° 0.1 mm 1 mps 745 mmHg 73%
    17:00 +20°C° 0.1 mm 1 mps 745 mmHg 79%
    18:00 +19°C° 0.1 mm 1 mps 745 mmHg 84%
    19:00 +18°C° 0.1 mm 1 mps 746 mmHg 84%
    20:00 +18°C° 0.1 mm 1 mps 746 mmHg 83%
    21:00 +18°C° 0.1 mm 1 mps 746 mmHg 82%
    22:00 +18°C° 0.1 mm 1 mps 746 mmHg 81%
    23:00 +18°C° 0.1 mm 1 mps 746 mmHg 80%
    Show more